Theta_e
307 309 309 310 311 311 311 311 310 311 314 318 321 322 323 324 324 325 326 326 326 326 327 326 326 326 325 325 323 323 322 323 323 323 323 323 323 322 321 321 319 319 318
304 304 305 307 309 309 310 310 310 311 311 310 311 315 321 322 323 324 325 326 327 328 328 327 327 326 326 325 325 323 323 322 322 323 323 323 323 322 322 321 319 319 318
302 302 302 302 302 304 307 309 309 310 310 310 311 310 310 316 321 324 326 324 325 326 326 327 327 327 327 327 326 325 324 323 323 323 323 323 322 322 320 320 319 317 317
299 300 300 301 301 301 301 301 304 308 309 310 310 310 310 311 310 318 321 321 323 324 325 325 326 327 327 328 327 326 326 324 324 323 323 322 322 321 320 319 318 316 315
298 298 298 299 299 299 300 301 301 301 303 307 309 310 310 310 311 310 311 318 320 322 325 324 324 325 326 327 327 327 326 325 324 323 323 322 321 320 319 318 317 314 314
296 297 297 297 297 297 298 298 299 300 300 300 302 306 309 310 310 310 310 309 316 319 323 324 323 324 325 326 326 327 326 325 324 324 322 321 320 320 320 319 315 315 310
294 295 295 296 296 296 296 297 297 298 298 299 300 300 302 306 309 310 310 310 309 311 318 320 321 322 325 325 324 326 325 325 324 323 322 321 322 321 321 317 316 315 314
293 293 294 294 295 295 295 295 296 296 297 298 298 299 299 301 303 307 309 310 309 309 309 315 318 319 321 321 323 324 324 322 322 322 322 321 321 320 320 316 316 314 310
290 291 292 292 293 293 294 294 294 295 295 296 297 298 298 299 300 302 305 308 309 309 309 310 315 318 319 319 321 322 322 322 322 322 320 319 319 318 316 315 313 310 307
289 289 289 289 289 290 290 291 292 292 293 294 295 296 297 298 298 299 303 305 308 309 309 309 308 315 317 318 319 320 320 321 320 319 319 318 317 317 315 314 312 310 308
286 287 287 287 288 288 288 289 289 290 291 291 292 294 295 296 297 297 299 303 305 307 308 309 309 308 314 315 317 318 318 318 318 317 316 316 315 314 312 311 309 307 306
284 284 284 284 285 285 285 286 286 287 288 289 290 292 292 293 295 296 297 298 301 303 305 306 307 307 309 312 313 314 315 315 315 316 315 313 312 311 310 308 306 305 304
283 284 284 283 283 283 283 284 284 283 284 285 285 286 288 288 290 292 293 294 296 297 299 302 302 302 305 308 310 311 311 311 312 313 312 312 310 309 308 304 302 302 301
281 281 281 281 282 282 281 281 281 280 280 281 279 279 281 283 285 289 291 293 292 294 295 297 299 299 301 304 306 307 309 308 309 309 310 310 309 306 304 302 301 301 299
280 280 280 280 280 280 279 277 276 277 276 276 277 279 281 283 284 287 288 290 291 292 293 294 294 296 298 300 302 304 305 306 307 307 306 306 306 304 302 301 300 298 296
279 279 279 278 278 277 277 277 277 275 275 277 279 281 282 283 285 288 289 290 291 292 293 293 294 294 295 296 297 300 302 303 304 304 304 303 303 302 300 299 298 296 294
279 279 279 277 277 277 276 276 275 278 278 279 278 277 278 280 285 287 289 290 291 291 292 293 293 293 294 294 295 296 298 300 301 302 301 300 299 298 299 298 297 294 291
278 278 278 276 276 275 275 274 274 274 275 276 278 278 278 280 283 285 288 290 290 290 291 292 293 293 294 294 294 295 295 297 298 299 298 298 297 296 295 294 294 293 290
275 274 274 275 275 274 274 274 274 273 274 274 275 277 276 277 280 281 284 286 285 287 289 290 293 293 293 294 294 294 294 295 296 297 297 296 295 294 293 294 293 292 289
273 272 272 271 271 272 273 274 273 273 272 272 272 272 270 274 275 276 277 277 279 281 284 288 290 291 293 293 293 293 293 293 293 294 294 293 292 291 290 290 289 288 287
272 272 272 272 271 270 270 270 270 270 270 271 271 271 269 272 272 272 273 273 273 275 278 281 284 288 291 292 292 293 292 292 292 291 290 290 289 288 287 286 286 287 287
271 271 271 271 270 270 269 268 267 267 267 268 270 271 271 271 271 271 272 272 273 273 273 276 279 281 284 287 289 290 291 291 290 289 289 289 288 287 287 287 287 287 284
270 270 270 269 269 268 268 267 267 267 267 266 267 267 268 269 269 270 270 271 272 272 273 273 274 277 279 281 282 284 285 287 288 288 287 287 286 286 287 286 286 283 282
269 269 269 268 268 267 267 267 266 266 266 266 266 266 266 266 266 268 269 270 270 271 272 272 272 273 274 276 277 279 281 281 283 283 284 285 285 285 285 284 282 282 283
268 268 268 267 267 266 266 266 266 266 265 265 265 265 265 266 266 266 266 267 269 270 270 271 272 272 273 274 275 275 276 277 279 280 281 283 284 284 283 282 283 283 283
268 268 267 266 266 266 265 265 265 265 265 265 264 264 264 264 265 265 265 266 266 267 269 269 270 271 272 273 273 274 275 276 277 278 280 281 281 281 282 283 282 281 281
Wind_Speed
18 17 15 15 16 17 18 19 21 23 28 30 32 36 38 38 38 39 41 41 43 42 43 45 46 46 46 46 46 47 49 48 49 46 43 40 37 37 31 32 30 27 27
20 21 21 21 19 20 21 23 23 23 22 25 28 33 35 37 39 41 43 44 45 45 45 45 46 45 47 46 47 46 47 48 48 46 42 42 41 31 35 33 33 28 30
21 22 23 25 26 26 25 25 26 27 27 27 26 28 32 34 36 38 41 43 45 47 46 46 48 46 49 47 46 47 47 46 45 48 46 41 40 37 39 32 34 33 30
24 25 26 27 29 30 30 29 28 28 29 29 29 31 31 33 35 37 39 41 44 46 47 47 48 49 49 50 47 47 46 47 47 47 46 47 46 42 37 34 34 31 29
29 29 30 30 31 32 33 34 34 34 32 31 32 31 31 33 35 36 38 40 42 45 47 49 48 47 46 46 52 48 45 44 47 49 49 48 46 44 41 38 36 28 32
34 34 34 34 34 34 36 36 37 38 38 37 35 35 34 32 32 33 35 39 41 44 46 45 47 45 44 48 42 47 43 41 45 44 47 48 44 45 41 36 35 31 33
40 40 42 44 43 42 41 41 41 41 41 42 41 40 39 38 35 33 33 37 41 44 47 46 46 45 47 41 41 43 41 42 40 45 46 42 43 40 34 36 35 33 36
40 42 44 46 48 49 47 44 44 44 43 43 44 44 45 43 39 37 36 37 40 43 44 48 48 48 47 44 42 43 42 43 42 47 49 44 38 34 35 36 34 33 33
44 46 46 47 48 50 51 52 51 49 49 48 47 47 47 47 43 40 39 38 40 41 42 44 46 47 46 43 42 45 44 43 42 42 40 43 38 36 35 34 35 33 34
46 48 50 52 53 54 52 51 50 50 53 51 51 48 49 51 47 42 39 41 42 42 42 43 43 46 47 44 41 45 45 46 42 43 39 42 40 41 36 37 36 40 37
45 46 47 48 50 52 54 53 53 51 51 52 54 54 52 50 51 48 42 39 40 41 44 45 44 39 41 43 44 44 45 43 39 40 40 40 40 39 38 40 37 37 36
45 47 48 48 48 48 49 50 49 50 51 52 52 54 52 50 47 45 43 40 38 38 42 44 45 42 36 41 43 46 46 44 39 41 44 41 43 41 39 37 35 36 35
43 44 45 46 46 46 48 49 49 48 47 50 50 50 51 43 43 41 39 37 35 36 39 38 39 42 37 40 42 41 43 45 43 42 45 45 45 42 38 36 34 38 38
38 40 41 43 44 44 44 44 44 44 45 44 45 46 49 47 42 37 38 38 41 41 41 41 38 36 38 39 42 42 44 45 44 45 46 46 45 43 41 38 38 42 39
35 38 41 43 45 46 44 44 41 39 36 41 44 45 46 51 50 45 42 43 41 39 40 42 42 38 36 41 44 45 45 45 45 45 46 47 47 46 45 44 43 43 41
33 37 39 42 44 44 45 47 41 33 33 31 32 34 41 45 49 41 38 39 38 37 39 42 42 41 40 38 42 48 46 46 46 46 47 49 50 49 49 48 46 45 45
32 35 38 39 40 42 44 46 50 48 41 37 34 33 33 38 37 40 44 38 33 33 38 42 43 41 39 40 39 45 48 48 48 48 50 51 50 49 51 51 50 47 47
29 31 33 35 36 37 38 40 42 46 50 49 42 39 39 36 34 35 32 32 35 35 37 38 41 42 41 41 41 43 45 48 49 51 52 52 52 52 53 53 52 52 50
27 29 30 32 33 34 36 37 39 41 43 45 47 45 46 45 40 33 27 26 27 27 31 34 37 40 42 43 42 42 44 49 51 52 52 53 54 55 55 55 54 54 51
26 28 29 31 33 34 35 37 38 40 41 42 43 44 47 47 47 44 40 38 34 31 30 27 27 35 40 42 42 41 44 46 48 49 50 51 51 52 51 52 51 52 49
27 28 29 31 32 33 33 34 33 34 36 38 39 38 36 40 43 44 42 41 40 38 34 30 27 22 30 38 39 39 39 42 46 46 45 46 47 46 45 45 45 43 42
26 27 29 30 31 31 32 31 32 33 35 36 37 37 38 39 40 41 41 40 40 39 36 31 26 22 18 17 24 33 36 39 42 43 44 45 45 47 47 42 41 39 38
24 26 27 27 29 30 31 31 31 32 34 35 37 38 38 39 39 39 40 39 38 37 36 34 31 25 19 16 15 17 23 31 36 39 42 43 43 43 41 40 37 37 36
24 26 27 28 28 29 30 31 32 33 34 35 35 36 37 37 38 37 37 37 36 35 33 33 31 29 25 20 14 11 13 17 22 29 33 37 38 35 32 31 33 34 32
25 25 27 29 30 31 32 32 33 34 34 35 35 36 36 36 36 37 36 36 35 34 33 31 29 28 26 22 18 15 11 5 8 14 18 23 27 27 30 33 31 30 30
24 26 27 28 28 29 31 32 32 33 34 35 35 35 36 36 36 37 37 37 36 35 33 31 29 27 25 22 20 17 13 8 3 3 8 12 16 21 24 27 28 28 28
Wind_Direction
21 14 357 342 338 337 331 324 313 301 291 283 285 287 287 285 285 282 279 278 275 275 274 273 273 272 270 269 266 265 263 263 261 268 270 272 268 276 263 267 254 254 255
13 8 6 1 354 344 339 335 328 318 310 302 292 282 281 285 285 283 281 281 280 277 275 273 272 271 270 269 266 266 266 264 262 263 272 273 266 262 275 254 245 258 249
5 357 353 352 351 350 346 339 334 328 322 312 303 298 291 282 279 278 278 278 277 278 279 276 274 271 268 268 268 266 265 264 264 267 264 259 267 268 264 249 247 247 252
358 353 350 347 343 340 338 335 333 329 324 321 313 307 304 298 286 277 275 277 278 280 280 278 276 274 272 269 264 267 264 261 263 261 259 263 262 260 247 250 243 243 252
348 345 342 338 335 333 330 327 326 324 321 319 316 313 309 301 299 294 284 276 274 275 274 275 278 277 277 275 263 266 263 263 260 261 262 260 259 255 249 252 243 247 252
339 337 334 330 329 327 324 323 321 318 317 316 313 311 308 306 307 299 293 284 274 274 274 273 275 277 275 273 275 268 269 264 266 262 259 256 264 260 260 259 237 256 232
337 334 332 330 328 326 323 320 318 315 313 312 311 310 307 306 308 307 301 288 279 270 268 270 275 275 275 273 273 269 269 265 266 268 267 259 260 262 260 253 248 244 243
333 330 328 325 324 324 324 322 318 314 311 309 306 306 305 306 305 304 302 298 286 277 270 268 267 269 270 273 274 272 266 264 262 258 264 262 261 262 256 261 258 243 234
331 327 326 324 323 322 320 320 320 318 314 311 308 304 302 301 303 302 300 296 293 287 277 268 265 267 270 269 270 267 267 264 261 255 258 256 254 251 253 251 231 228 226
326 326 325 325 323 321 320 319 316 315 312 311 307 305 303 300 298 299 299 297 294 293 289 278 270 264 265 266 266 264 262 259 258 256 254 255 259 250 247 241 243 235 233
327 325 324 322 320 319 318 317 316 316 312 311 308 306 305 303 302 299 298 295 294 291 288 287 281 271 265 267 264 261 261 260 257 257 260 250 248 245 250 241 236 233 239
331 331 329 327 326 322 319 318 317 317 314 312 310 306 305 306 303 301 300 300 299 293 287 283 280 276 265 263 264 262 260 258 254 250 245 248 236 245 241 237 239 232 231
335 333 333 332 333 331 328 325 324 325 322 319 317 314 310 307 305 303 300 301 300 297 291 287 282 274 267 263 260 260 259 255 251 246 240 241 241 244 238 237 229 223 222
346 346 346 344 342 340 337 336 333 333 331 327 321 316 314 311 306 303 302 303 302 301 297 291 284 277 268 262 264 260 255 253 252 249 244 242 239 232 231 232 224 220 219
354 353 353 352 353 351 349 347 340 338 328 319 313 312 310 309 306 303 301 301 299 297 298 295 290 281 275 268 261 258 253 250 245 243 240 238 235 229 225 218 220 217 216
357 357 357 356 355 354 352 349 352 342 330 326 319 313 309 307 306 304 301 297 292 290 289 283 278 278 277 272 268 262 252 248 246 243 241 240 238 230 221 217 217 216 218
356 354 353 354 353 354 354 354 349 353 356 354 345 334 327 311 309 301 292 295 295 290 284 278 271 269 267 270 266 257 258 256 251 246 242 241 237 232 224 218 217 216 213
353 350 349 350 351 353 353 354 354 354 353 355 358 353 343 335 326 316 307 296 301 300 296 288 272 267 267 265 264 261 256 256 253 248 242 240 236 231 223 219 218 216 215
355 351 348 347 350 351 352 354 354 355 355 355 356 357 356 353 347 342 333 322 322 317 308 304 286 275 272 268 266 264 259 255 255 250 244 239 233 227 221 219 218 214 211
359 358 354 352 350 350 351 353 352 353 354 357 0 2 357 355 1 1 359 355 346 336 327 310 300 289 281 276 269 265 258 250 245 244 242 236 227 222 216 212 208 204 206
354 355 353 352 352 353 353 353 350 350 352 355 358 1 356 3 5 6 5 4 2 357 348 338 325 298 282 280 272 265 259 249 244 239 231 226 220 211 208 203 203 204 198
352 353 352 350 348 349 351 351 352 353 354 354 353 356 360 4 5 4 5 5 5 5 5 357 346 336 319 283 263 267 266 255 245 238 231 226 218 214 210 208 204 197 194
350 351 350 349 348 347 348 350 351 353 353 354 355 356 357 358 359 -0 1 2 3 3 4 7 6 0 349 331 309 280 260 252 248 243 234 224 218 214 210 199 191 187 186
349 349 347 347 347 346 347 347 348 350 352 352 353 354 355 355 355 353 354 355 358 0 1 2 4 7 8 6 355 320 282 266 254 241 234 228 216 204 191 187 185 184 190
345 346 345 346 345 344 344 345 346 347 348 349 350 351 351 351 351 351 352 351 350 353 356 357 358 359 0 3 5 8 7 328 257 234 226 211 194 187 187 185 188 197 200
343 344 342 342 342 342 342 342 342 343 343 344 345 346 346 346 347 347 347 348 348 347 345 348 350 351 351 351 352 357 356 357 7 188 187 191 191 193 198 204 204 202 200